Flag for Germany Past Weather in Rottenburg am Neckar, Baden-Württemberg, Germany — Yesterday and Last 2 Weeks

Now
64 °F

Clear.


Feels Like: 64 °F
Forecast: 56 / 78 °F
Wind: 2 mph from North

Location: Stuttgart-Echterdingen

Current Time: Jun 29, 2016 at 12:47:23 AM

Latest Report: Jun 29, 2016 at 12:20 AM


Visibility: 10 mi

Pressure: 30.01 "Hg

Humidity: 78%

Dew Point: 57 °F

Location of Rottenburg am NeckarLocation

Past Weather in Rottenburg am Neckar — Graph

°F

Rottenburg am Neckar Temperature Yesterday

Maximum temperature yesterday: 75 °F (at 2:20 PM)
Minimum temperature yesterday: 59 °F (at 5:20 AM)
Average temperature yesterday: 67 °F

High & Low Weather Summary for the Past Weeks

 TemperatureHumidityPressure
High91 °F (Jun 23, 4:50 PM)100% (Jun 15, 6:20 AM)30.27 "Hg (Jun 15, 6:20 AM)
Low48 °F (Jun 20, 4:20 AM)30% (Jun 23, 5:20 PM)29.56 "Hg (Jun 14, 12:50 PM)
Average64 °F75%30.00 "Hg
* Reported Jun 13 11:20 PM — Jun 28 11:20 PM, Rottenburg am Neckar, Weather by CustomWeather, © 2016

Note: Actual official high and low records may vary slightly from our data, if they occured in-between our weather recording intervals... More about our weather records

Advertising

Rottenburg am Neckar Weather History for the Previous 24 Hours

Scroll right to see more
 ConditionsComfort  
Time TempWeatherWind HumidityBarometerVisibility
11:20 PM
Tue, Jun 28
64 °FClear.3 mph78%30.01 "Hg10 mi
10:50 PM64 °FClear.No wind78%30.01 "Hg10 mi
10:20 PM66 °FBroken clouds.2 mph73%30.01 "HgN/A
9:50 PM66 °FBroken clouds.2 mph73%30.01 "HgN/A
9:20 PM66 °FBroken clouds.6 mph78%30.01 "HgN/A
8:50 PM66 °FBroken clouds.3 mph78%30.01 "HgN/A
8:20 PM68 °FPassing clouds.7 mph73%30.01 "HgN/A
7:50 PM68 °FPassing clouds.7 mph73%30.01 "HgN/A
7:20 PM68 °FPassing clouds.7 mph78%30.01 "HgN/A
6:50 PM68 °FPassing clouds.10 mph78%30.01 "HgN/A
6:20 PM70 °FPartly sunny.12 mph73%30.01 "HgN/A
5:50 PM70 °FBroken clouds.14 mph73%30.01 "HgN/A
5:20 PM68 °FBroken clouds.16 mph78%30.04 "HgN/A
4:50 PM73 °FPassing clouds.7 mph61%30.01 "HgN/A
4:20 PM75 °FPassing clouds.5 mph57%30.01 "HgN/A
3:50 PM75 °FSunny.2 mph54%30.04 "Hg10 mi
3:20 PM73 °FBroken clouds.6 mph61%30.04 "HgN/A
2:50 PM73 °FBroken clouds.9 mph61%30.04 "HgN/A
2:20 PM75 °FBroken clouds.3 mph50%30.04 "HgN/A
1:50 PM73 °FBroken clouds.5 mph53%30.07 "HgN/A
1:20 PM73 °FScattered clouds.7 mph57%30.07 "HgN/A
12:50 PM72 °FBroken clouds.6 mph61%30.09 "HgN/A
12:20 PM72 °FBroken clouds.6 mph61%30.09 "HgN/A
11:50 AM70 °FBroken clouds.6 mph60%30.09 "HgN/A
11:20 AM70 °FBroken clouds.5 mph64%30.09 "HgN/A
10:50 AM70 °FBroken clouds.6 mph64%30.09 "HgN/A
10:20 AM70 °FBroken clouds.6 mph64%30.09 "HgN/A
9:50 AM68 °FBroken clouds.5 mph69%30.12 "HgN/A
9:20 AM68 °FPartly sunny.6 mph69%30.09 "HgN/A
8:50 AM68 °FPartly sunny.6 mph69%30.09 "HgN/A
8:20 AM66 °FPartly sunny.2 mph73%30.12 "HgN/A
7:50 AM64 °FBroken clouds.1 mph78%30.12 "HgN/A
7:20 AM61 °FScattered clouds.1 mph83%30.12 "HgN/A
6:50 AM61 °FPartly sunny.3 mph83%30.12 "HgN/A
6:20 AM61 °FPassing clouds.2 mph83%30.12 "HgN/A
5:50 AM59 °FPassing clouds.2 mph88%30.12 "HgN/A
5:20 AM59 °FPassing clouds.1 mph82%30.12 "HgN/A
4:50 AM61 °FClear.2 mph83%30.12 "Hg10 mi
4:20 AM61 °FClear.No wind83%30.12 "Hg10 mi
3:50 AM61 °FClear.1 mph88%30.12 "Hg10 mi
3:20 AM61 °FClear.2 mph88%30.12 "Hg10 mi
2:50 AM63 °FClear.1 mph77%30.15 "Hg10 mi
2:20 AM63 °FPassing clouds.1 mph77%30.15 "HgN/A
1:50 AM63 °FClear.1 mph83%30.15 "Hg10 mi
1:20 AM63 °FClear.1 mph83%30.15 "Hg10 mi
12:50 AM63 °FClear.No wind77%30.15 "Hg10 mi
12:20 AM63 °FClear.2 mph83%30.15 "Hg10 mi
Weather by CustomWeather, © 2016

See weather overviewHow to use our weather pages